This is the latest recevied weather packets stored in our database for station/object KI4NG. If no packets are shown the sender has not sent any weather packets the latest 10 day(s).
| Time | Temp. | Humidity | Pressure | Rain* | Wind** | Luminosity | Snow |
|---|---|---|---|---|---|---|---|
| 1788198321 | 30° C | 68% | 1023.3 hPa | 0 mm | - | 514 W/m² | - |
| 1788198015 | 30° C | 66% | 1023.4 hPa | 0 mm | - | 193 W/m² | - |
| 1788197714 | 30° C | 64% | 1023.6 hPa | 0 mm | - | 205 W/m² | - |
| 1788197410 | 30.56° C | 62% | 1023.5 hPa | 0 mm | - | 189 W/m² | - |
| 1788197105 | 31.11° C | 60% | 1023.4 hPa | 0 mm | - | 222 W/m² | - |
| 1788196800 | 31.67° C | 60% | 1023.5 hPa | 0 mm | - | 776 W/m² | - |
| 1788196495 | 30.56° C | 63% | 1023.8 hPa | 0 mm | - | 781 W/m² | - |
| 1788196192 | 29.44° C | 67% | 1023.7 hPa | 0 mm | - | 745 W/m² | - |
| 1788195888 | 29.44° C | 69% | 1023.7 hPa | 0 mm | - | 189 W/m² | - |
| 1788195585 | 30° C | 67% | 1023.6 hPa | 0 mm | - | 179 W/m² | - |
| 1788195280 | 30.56° C | 67% | 1023.6 hPa | 0 mm | - | 170 W/m² | - |
| 1788194977 | 31.11° C | 64% | 1023.9 hPa | 0 mm | - | 657 W/m² | - |
| 1788194673 | 31.11° C | 66% | 1023.9 hPa | 0 mm | - | 822 W/m² | - |
| 1788194373 | 30.56° C | 67% | 1024.1 hPa | 0 mm | - | 808 W/m² | - |
| 1788194063 | 30° C | 67% | 1023.8 hPa | 0 mm | - | 810 W/m² | - |
| 1788193761 | 30° C | 67% | 1023.8 hPa | 0 mm | - | 830 W/m² | - |
| 1788193457 | 29.44° C | 69% | 1024.1 hPa | 0 mm | - | 822 W/m² | - |
| 1788193155 | 29.44° C | 68% | 1024.1 hPa | 0 mm | - | 842 W/m² | - |
| 1788192853 | 29.44° C | 71% | 1024 hPa | 0 mm | - | 765 W/m² | - |
| 1788192548 | 28.89° C | 71% | 1024 hPa | 0 mm | - | 747 W/m² | - |
| 1788192243 | 28.89° C | 71% | 1023.9 hPa | 0 mm | - | 209 W/m² | - |
| 1788191937 | 28.89° C | 71% | 1024.3 hPa | 0 mm | - | 190 W/m² | - |
| 1788191637 | 28.89° C | 71% | 1024.3 hPa | 0 mm | - | 837 W/m² | - |
| 1788191333 | 28.89° C | 73% | 1024.1 hPa | 0 mm | - | 813 W/m² | - |
| 1788191029 | 28.89° C | 73% | 1024 hPa | 0 mm | - | 744 W/m² | - |
* Rain latest hour (hover to see other rain measurements)
** Current wind speed in m/s (hover to see current wind gust speed)